Home   Weather   Ocala   Past weeks

Flag for USA Past Weather in Ocala, Florida, USA — Yesterday and Last 2 Weeks

Now
84 °F

Scattered clouds.


Feels Like: 90 °F
Forecast: 71 / 85 °F
Wind: 7 mph from Southwest

Location: Ocala Municipal

Current Time: Sep 28, 2016 at 11:25:39 AM

Latest Report: Sep 28, 2016 at 10:50 AM


Visibility: 10 mi

Pressure: 30.02 "Hg

Humidity: 66%

Dew Point: 72 °F

Location of OcalaLocation

Past Weather in Ocala — Graph

°F

Ocala Temperature Yesterday

Maximum temperature yesterday: 90 °F (at 2:50 PM)
Minimum temperature yesterday: 68 °F (at 5:35 AM)
Average temperature yesterday: 75 °F

High & Low Weather Summary for the Past Weeks

 TemperatureHumidityPressure
High91 °F (Sep 22, 3:50 PM)94% (Sep 13, 5:50 PM)30.09 "Hg (Sep 13, 5:50 PM)
Low68 °F (Sep 27, 5:35 AM)44% (Sep 24, 2:50 PM)29.88 "Hg (Sep 27, 4:50 PM)
Average77 °F82%30.00 "Hg
* Reported Sep 13 9:50 AM — Sep 28 9:50 AM, Ocala, Weather by CustomWeather, © 2016

Note: Actual official high and low records may vary slightly from our data, if they occured in-between our weather recording intervals... More about our weather records

Advertising

Ocala Weather History for the Previous 24 Hours

Scroll right to see more
 ConditionsComfort  
Time TempWeatherWind HumidityBarometerVisibility
9:50 AM
Wed, Sep 28
79 °FPassing clouds.8 mph79%30.01 "Hg10 mi
8:50 AM73 °FSunny.No wind89%30.08 "Hg10 mi
7:50 AM70 °FSunny.No wind88%29.97 "Hg10 mi
6:50 AM70 °FClear.No wind88%29.97 "Hg10 mi
6:35 AM70 °FClear.No wind88%29.97 "Hg8 mi
6:15 AM70 °FPassing clouds.No wind94%29.97 "Hg7 mi
5:55 AM70 °FClear.No wind88%29.97 "Hg6 mi
5:35 AM70 °FClear.No wind88%29.96 "Hg7 mi
5:15 AM70 °FClear.No wind88%29.96 "Hg4 mi
4:55 AM72 °FClear.No wind88%29.96 "Hg7 mi
4:35 AM72 °FPassing clouds.No wind88%29.95 "Hg10 mi
4:15 AM72 °FPassing clouds.No wind88%29.95 "Hg9 mi
3:55 AM72 °FClear.No wind88%29.95 "Hg9 mi
3:35 AM72 °FClear.No wind88%29.95 "Hg9 mi
3:15 AM70 °FClear.No wind88%29.95 "Hg9 mi
2:55 AM72 °FClear.No wind83%29.95 "Hg10 mi
2:35 AM72 °FClear.No wind83%29.95 "Hg10 mi
2:15 AM72 °FClear.No wind88%29.95 "Hg10 mi
1:55 AM72 °FClear.3 mph88%29.96 "Hg10 mi
1:35 AM72 °FClear.No wind88%29.96 "Hg10 mi
1:15 AM72 °FClear.No wind88%29.96 "Hg10 mi
12:55 AM72 °FClear.No wind88%29.96 "Hg10 mi
12:35 AM72 °FClear.No wind88%29.96 "Hg10 mi
12:15 AM72 °FClear.No wind88%29.96 "Hg10 mi
11:55 PM
Tue, Sep 27
72 °FClear.No wind88%29.96 "Hg10 mi
11:35 PM72 °FClear.No wind88%29.96 "Hg10 mi
11:15 PM73 °FClear.3 mph83%29.97 "Hg10 mi
10:55 PM72 °FClear.3 mph88%29.97 "Hg10 mi
10:35 PM73 °FClear.No wind83%29.96 "Hg10 mi
10:15 PM73 °FClear.3 mph83%29.96 "Hg10 mi
9:55 PM73 °FClear.3 mph83%29.95 "Hg10 mi
9:35 PM73 °FClear.No wind83%29.95 "Hg10 mi
9:15 PM75 °FClear.No wind78%29.94 "Hg10 mi
8:55 PM75 °FClear.No wind78%29.93 "Hg10 mi
8:15 PM77 °FClear.3 mph74%29.92 "Hg10 mi
7:55 PM79 °FClear.No wind70%29.92 "Hg10 mi
6:50 PM82 °FScattered clouds.3 mph58%29.89 "Hg10 mi
5:50 PM88 °FScattered clouds.10 mph49%29.89 "Hg10 mi
4:50 PM90 °FScattered clouds.9 mph46%29.88 "Hg10 mi
3:50 PM90 °FScattered clouds.6 mph49%29.89 "Hg10 mi
2:50 PM90 °FScattered clouds.6 mph49%29.91 "Hg10 mi
1:50 PM88 °FScattered clouds.5 mph55%29.93 "Hg10 mi
12:50 PM88 °FScattered clouds.6 mph55%29.95 "Hg10 mi
11:50 AM84 °FScattered clouds.7 mph66%29.97 "Hg10 mi
Weather by CustomWeather, © 2016

See weather overviewHow to use our weather pages